EW5212 Weather Reports


time (UTC)temp
F
wind
direction
speed
knots
gust
knots
rain 1hr
in
rain 24hr
in
rain mn
in
humidity
%
barometer
mb
20260901211516 96 0.0 0.0 0.00 0.00 0.00 63 1016.2
20260901210516 95 0.0 1.7 0.00 0.00 0.00 63 1016.3
20260901205516 95 0.0 1.7 0.00 0.00 0.00 62 1016.4
20260901204516 95 0.0 0.9 0.00 0.00 0.00 61 1016.4
20260901203536 95 0.0 1.7 0.00 0.00 0.00 59 1016.4
20260901202516 95 0.0 0.9 0.00 0.00 0.00 63 1016.5
20260901201516 94 0.0 0.0 0.00 0.00 0.00 64 1016.6
20260901200516 95 0.0 0.0 0.00 0.00 0.00 62 1016.9
20260901195516 95 0.0 0.0 0.00 0.00 0.00 61 1016.9
20260901194516 94 0.0 1.7 0.00 0.00 0.00 61 1016.9
20260901193516 94 45 0.9 1.7 0.00 0.00 0.00 64 1016.9
20260901192516 93 0.0 0.9 0.00 0.00 0.00 62 1016.9
20260901191516 95 0.0 0.9 0.00 0.00 0.00 61 1017.1
20260901190616 95 0.0 1.7 0.00 0.00 0.00 59 1017.2
20260901185516 93 0.0 1.7 0.00 0.00 0.00 61 1017.4
20260901184515 93 0.0 0.9 0.00 0.00 0.00 64 1017.3
20260901183515 94 0.0 0.0 0.00 0.00 0.00 64 1017.5
20260901182516 95 45 0.9 2.6 0.00 0.00 0.00 63 1017.6
20260901181516 95 0.0 0.9 0.00 0.00 0.00 62 1017.7
20260901180536 95 0.0 0.9 0.00 0.00 0.00 63 1017.4
20260901175516 95 45 0.9 1.7 0.00 0.00 0.00 60 1017.4
20260901174516 96 113 0.9 0.9 0.00 0.00 0.00 59 1017.3
20260901173516 94 68 0.9 1.7 0.00 0.00 0.00 63 1017.4
20260901172516 94 0 0.9 1.7 0.00 0.00 0.00 64 1017.4
20260901171516 94 45 0.9 1.7 0.00 0.00 0.00 63 1017.4
20260901170516 95 293 0.9 1.7 0.00 0.00 0.00 63 1017.4
20260901165516 94 68 0.9 1.7 0.00 0.00 0.00 64 1017.6
20260901164516 93 45 0.9 1.7 0.00 0.00 0.00 68 1017.7
20260901163536 93 45 0.9 1.7 0.00 0.00 0.00 67 1017.9
20260901162536 94 315 0.9 2.6 0.00 0.00 0.00 67 1018.1
20260901161516 93 270 0.9 3.5 0.00 0.00 0.00 66 1018.4
20260901160516 93 338 0.9 1.7 0.00 0.00 0.00 68 1018.4
20260901155516 93 270 0.9 2.6 0.00 0.00 0.00 68 1018.5
20260901154515 91 270 0.9 3.5 0.00 0.00 0.00 71 1018.5
20260901153515 91 45 0.9 4.3 0.00 0.00 0.00 70 1018.7
20260901152516 91 225 0.9 3.5 0.00 0.00 0.00 71 1018.7
20260901151535 91 23 0.9 3.5 0.00 0.00 0.00 72 1018.7
20260901150516 90 0 0.9 0.9 0.00 0.00 0.00 74 1018.9
20260901145515 90 270 1.7 4.3 0.00 0.00 0.00 72 1018.9
20260901144535 89 0.0 0.0 0.00 0.00 0.00 76 1018.9
20260901143516 89 0.0 1.7 0.00 0.00 0.00 78 1018.9
20260901142516 87 248 0.9 4.3 0.00 0.00 0.00 78 1018.8
20260901141516 87 0.0 5.2 0.00 0.00 0.00 78 1018.8
20260901140515 86 0.0 3.5 0.00 0.00 0.00 79 1018.8
20260901135516 85 0.0 0.9 0.00 0.00 0.00 84 1018.8
20260901134515 83 0.0 1.7 0.00 0.00 0.00 85 1018.8
20260901133516 82 0.0 0.9 0.00 0.00 0.00 87 1018.8
20260901132518 81 0.0 0.9 0.00 0.00 0.00 91 1018.8
20260901131515 79 0.0 0.9 0.00 0.00 0.00 96 1018.8
20260901130516 77 0.0 0.9 0.00 0.00 0.00 100 1019.0
20260901125515 76 0.0 0.0 0.00 0.00 0.00 100 1019.0
20260901124535 75 0.0 0.0 0.00 0.00 0.00 100 1018.8
20260901123515 74 0.0 0.0 0.00 0.00 0.00 100 1018.8
20260901122515 74 0.0 0.0 0.00 0.00 0.00 100 1018.8
20260901121515 73 0.0 0.0 0.00 0.00 0.00 100 1018.8
20260901120516 72 0.0 0.0 0.00 0.00 0.00 100 1018.8
20260901115515 72 0.0 0.0 0.00 0.00 0.00 100 1018.8
20260901114515 72 0.0 0.0 0.00 0.00 0.00 100 1018.8
20260901113515 71 0.0 0.0 0.00 0.00 0.00 100 1018.7
20260901112516 71 0.0 0.0 0.00 0.00 0.00 100 1018.5
20260901111516 71 0.0 0.0 0.00 0.00 0.00 100 1018.4
20260901110516 71 0.0 0.0 0.00 0.00 0.00 100 1018.4
20260901105515 71 0.0 0.0 0.00 0.00 0.00 100 1018.5
20260901104515 71 0.0 0.0 0.00 0.00 0.00 100 1018.2
20260901103515 71 0.0 0.0 0.00 0.00 0.00 100 1018.1
20260901102520 71 0.0 0.0 0.00 0.00 0.00 100 1018.1
20260901101515 71 0.0 0.0 0.00 0.00 0.00 100 1018.2
20260901100515 70 0.0 0.0 0.00 0.00 0.00 100 1018.3
20260901095515 70 0.0 0.0 0.00 0.00 0.00 100 1018.5
20260901094515 70 0.0 0.0 0.00 0.00 0.00 100 1018.4
20260901093515 70 0.0 0.0 0.00 0.00 0.00 100 1018.3
20260901092515 70 0.0 0.0 0.00 0.00 0.00 100 1018.2
20260901091515 70 0.0 0.0 0.00 0.00 0.00 99 1018.2
20260901090516 70 0.0 0.0 0.00 0.00 0.00 99 1018.3
20260901085515 70 0.0 0.0 0.00 0.00 0.00 99 1018.3
20260901084516 70 0.0 0.0 0.00 0.00 0.00 99 1018.2
20260901083515 70 0.0 0.0 0.00 0.00 0.00 99 1018.3
20260901082515 70 0.0 0.0 0.00 0.00 0.00 99 1018.3
20260901081515 70 0.0 0.0 0.00 0.00 0.00 99 1018.3
20260901080516 70 0.0 0.0 0.00 0.00 0.00 99 1018.4
20260901075535 70 0.0 0.0 0.00 0.00 0.00 99 1018.3
20260901074515 70 0.0 0.0 0.00 0.00 0.00 99 1018.3
20260901073515 70 0.0 0.0 0.00 0.00 0.00 99 1018.3
20260901072535 70 0.0 0.0 0.00 0.00 0.00 99 1018.2
20260901071515 70 0.0 0.0 0.00 0.00 0.00 99 1018.4
20260901070515 71 0.0 0.0 0.00 0.00 0.00 99 1018.6
20260901065515 71 0.0 0.0 0.00 0.00 0.00 99 1018.7
20260901064515 71 0.0 0.0 0.00 0.00 0.00 99 1018.8
20260901063517 71 0.0 0.0 0.00 0.00 0.00 99 1018.8
20260901062517 71 0.0 0.0 0.00 0.00 0.00 99 1018.9
20260901061517 71 0.0 0.0 0.00 0.00 0.00 99 1018.9
20260901060517 71 0.0 0.0 0.00 0.00 0.00 99 1019.0
20260901055517 71 0.0 0.0 0.00 0.00 0.00 98 1019.0
20260901054517 72 0.0 0.0 0.00 0.00 0.00 98 1019.1
20260901053537 72 0.0 0.0 0.00 0.00 0.00 98 1019.1
20260901052517 72 0.0 0.0 0.00 0.00 0.00 98 1019.1
20260901051517 72 0.0 0.0 0.00 0.00 0.00 98 1019.3
20260901050517 72 0.0 0.0 0.00 0.00 0.00 98 1019.4
20260901045517 72 0.0 0.0 0.00 0.00 0.00 98 1019.5
20260901044517 73 0.0 0.0 0.00 0.00 0.00 98 1019.5
20260901043517 73 0.0 0.0 0.00 0.00 0.00 98 1019.5
20260901042517 73 0.0 0.0 0.00 0.00 0.00 98 1019.5
20260901041537 73 0.0 0.0 0.00 0.00 0.00 97 1019.4
20260901040537 73 0.0 0.0 0.00 0.00 0.00 97 1019.3
20260901040016 73 0.0 0.0 0.00 0.00 0.00 97 1019.3
20260901035015 74 0.0 0.0 0.00 0.00 0.00 97 1019.3
20260901034016 74 0.0 0.0 0.00 0.00 0.00 97 1019.2
20260901033015 74 0.0 0.0 0.00 0.00 0.00 97 1019.2
20260901032015 74 0.0 0.0 0.00 0.00 0.00 97 1019.2
20260901031015 75 0.0 0.0 0.00 0.00 0.00 96 1019.2
20260901030057 75 0.0 0.0 0.00 0.00 0.00 96 1019.3
20260901025015 75 0.0 0.0 0.00 0.00 0.00 96 1019.4
20260901024015 75 0.0 0.0 0.00 0.00 0.00 96 1019.2
20260901023015 75 0.0 0.0 0.00 0.00 0.00 95 1019.1
20260901022036 76 0.0 0.0 0.00 0.00 0.00 95 1019.4
20260901021015 76 0.0 0.0 0.00 0.00 0.00 95 1019.6
20260901020035 76 0.0 0.0 0.00 0.00 0.00 95 1019.7
20260901015015 76 0.0 0.0 0.00 0.00 0.00 95 1019.5
20260901014016 76 0.0 0.9 0.00 0.00 0.00 94 1019.4
20260901013015 77 0.0 0.0 0.00 0.00 0.00 94 1019.3
20260901012015 77 0.0 0.0 0.00 0.00 0.00 94 1019.2
20260901011015 77 0.0 0.0 0.00 0.00 0.00 94 1019.2
20260901010015 78 0.0 0.0 0.00 0.00 0.00 94 1019.1
20260901005015 78 0.0 0.0 0.00 0.00 0.00 94 1019.1
20260901004015 78 0.0 0.0 0.00 0.00 0.00 93 1019.1
20260901003015 78 0.0 0.0 0.00 0.00 0.00 93 1019.2
20260901002015 78 0.0 0.0 0.00 0.00 0.00 92 1019.1
20260901001015 79 0.0 0.0 0.00 0.00 0.00 92 1019.0
20260901000035 79 0.0 0.0 0.00 0.00 0.00 91 1018.9
20260831235016 80 0.0 0.0 0.00 0.00 0.00 89 1018.8
20260831234016 80 0.0 0.0 0.00 0.00 0.00 89 1018.8
20260831233055 81 0.0 0.0 0.00 0.00 0.00 89 1018.8
20260831232015 82 0.0 0.0 0.00 0.00 0.00 88 1018.8
20260831231015 82 0.0 0.0 0.00 0.00 0.00 87 1018.8
20260831230015 84 0.0 0.0 0.00 0.00 0.00 84 1018.7
20260831225015 85 0.0 0.0 0.00 0.00 0.00 81 1018.7
20260831224015 86 0.0 0.0 0.00 0.00 0.00 82 1018.7
20260831223015 86 0.0 0.0 0.00 0.00 0.00 82 1018.8
20260831222015 85 0.0 0.0 0.00 0.00 0.00 82 1018.8
20260831221015 86 0.0 0.0 0.00 0.00 0.00 80 1018.9
20260831220015 87 0.0 0.0 0.00 0.00 0.00 79 1018.9
20260831215015 87 0.0 0.0 0.00 0.00 0.00 75 1018.9
20260831214035 89 0.0 0.0 0.00 0.00 0.00 73 1018.9
20260831213015 90 0.0 0.0 0.00 0.00 0.00 71 1018.7
20260831212055 92 0.0 0.0 0.00 0.00 0.00 67 1018.8